Location: Mentone
(34.5413°N, 85.5351°W)
Time: 13:32:37
(UTC-05:00)

Okean O Rocket - Visible Passes

Search period start: 22 July 2017 00:00
Search period end: 01 August 2017 00:00
Orbit: 624 x 645 km, 98.1° (Epoch: 21 July)

Date Brightness Start Highest point End Pass type
(mag) Time Alt. Az. Time Alt. Az. Time Alt. Az.
22 Jul 3.0 04:05:13 10° NNE 04:09:19 35° E 04:13:24 10° SSE visible
23 Jul 2.0 04:26:35 10° NNE 04:31:01 65° E 04:35:26 10° S visible
24 Jul 1.6 04:48:13 10° N 04:52:40 70° WNW 04:57:05 10° SSW visible
25 Jul 4.2 03:35:05 10° ENE 03:37:46 16° E 03:40:27 10° SE visible
25 Jul 2.3 05:10:06 10° N 05:14:14 38° WNW 05:18:22 10° SW visible
26 Jul 3.5 03:55:45 10° NE 03:59:34 27° E 04:03:21 10° SSE visible
27 Jul 2.5 04:16:57 10° NNE 04:21:17 49° E 04:25:36 10° S visible
28 Jul 1.6 04:38:28 10° NNE 04:42:58 89° ESE 04:47:25 10° SSW visible
29 Jul 4.4 03:26:20 10° ENE 03:27:58 12° E 03:29:36 10° ESE visible
29 Jul 1.9 05:00:14 10° N 05:04:34 50° WNW 05:08:52 10° SSW visible
30 Jul 3.9 03:46:24 10° NE 03:49:47 21° E 03:53:09 10° SE visible
30 Jul 2.7 05:22:16 10° NNW 05:26:06 29° WNW 05:29:55 10° SW visible
31 Jul 3.0 04:07:24 10° NNE 04:11:32 37° E 04:15:39 10° SSE visible
